Flag for Germany Weather past 2 weeks in Homberg (Efze), Hesse, Germany

Now
61 °F

Overcast.


Feels Like: 61 °F
Forecast: 47 / 63 °F
Wind: 8 mph from Southwest

Location: Fritzlar

Current Time: Apr 25, 2015 at 6:11:38 PM

Latest Report: Apr 25, 2015 at 5:00 PM


Visibility: 16 mi

Pressure: 29.75 "Hg

Humidity: 65%

Dew point: 49 °F

Location of Homberg (Efze)Location

Historic Weather in Homberg (Efze) — Graph

°F

Homberg (Efze) temperature yesterday

Maximum temperature yesterday: 67 °F (at 5:00 PM)
Minimum temperature yesterday: 35 °F (at 6:00 AM)
Average temperature yesterday: 53 °F

Past Weeks' High & Low Weather Summary

 TemperatureHumidityPressure
High75 °F (Apr 15, 5:00 PM)96% (Apr 23, 6:00 AM)30.47 "Hg (Apr 23, 6:00 AM)
Low29 °F (Apr 19, 7:00 AM)23% (Apr 21, 7:00 PM)29.75 "Hg (Apr 25, 5:00 PM)
Average50 °F62%30.18 "Hg
* Reported Apr 10 5:00 PM — Apr 25 5:00 PM, Homberg (Efze), Weather by CustomWeather, © 2015

Note: Actual official high and low records may vary slightly from our data, if they occured in-between our weather recording intervals... More about our weather records

Advertising

Homberg (Efze) weather history for previous 24 hours

 ConditionsComfort  
Time TempWeatherWind HumidityBarometerVisibility
5:00 PM
Sat, Apr 25
61 °FOvercast.8 mph65%29.75 "Hg16 mi
4:00 PM61 °FOvercast.9 mph61%29.76 "Hg19 mi
3:00 PM60 °FOvercast.6 mph69%29.78 "Hg16 mi
2:00 PM57 °FLight rain. Overcast.6 mph70%29.80 "Hg12 mi
1:00 PM58 °FOvercast.10 mph63%29.81 "Hg12 mi
12:00 PM61 °FOvercast.6 mph54%29.80 "Hg16 mi
11:00 AM59 °FOvercast.6 mph52%29.80 "Hg16 mi
10:00 AM54 °FOvercast.N/A67%29.81 "Hg16 mi
9:00 AM50 °FOvercast.No wind75%29.82 "Hg14 mi
8:00 AM44 °FOvercast.N/A89%29.83 "Hg12 mi
7:00 AM41 °FOvercast.No wind91%29.84 "Hg11 mi
6:00 AM40 °FOvercast.No wind91%29.84 "Hg11 mi
5:00 AM41 °FPassing clouds.No wind88%29.84 "Hg8 mi
4:00 AM42 °FPassing clouds.No wind87%29.85 "Hg9 mi
3:00 AM42 °FPassing clouds.No wind86%29.85 "Hg9 mi
1:00 AM51 °FPassing clouds.2 mph64%29.86 "Hg12 mi
12:00 AM50 °FPassing clouds.N/A66%29.87 "Hg12 mi
10:00 PM
Fri, Apr 24
56 °FPassing clouds.2 mph53%29.86 "Hg16 mi
9:00 PM58 °FOvercast.5 mph49%29.85 "Hg19 mi
8:00 PM64 °FOvercast.5 mph40%29.83 "Hg25 mi
7:00 PM66 °FScattered clouds.7 mph36%29.83 "Hg25 mi
6:00 PM67 °FScattered clouds.6 mph36%29.85 "Hg25 mi
Weather by CustomWeather, © 2015

See weather overviewHow to use our weather pages